RH
31 36 34 31 35 35 34 32 29 27 23 23 24 24 23 24 28 35 43 50 52 50 46 43 40 39 38 38 38 40 42 42 41 36 30 30 27 25 32 24 25 23 23
34 34 38 37 36 35 34 29 25 25 26 27 27 27 26 25 24 24 25 27 28 31 33 35 37 39 42 44 44 41 36 34 34 30 24 15 10 13 19 21 22 19 18
36 35 35 36 36 34 30 26 27 29 29 29 31 32 32 30 30 32 34 38 40 42 44 44 43 40 38 37 38 37 33 21 15 15 19 17 16 14 15 17 18 20 21
37 35 34 34 32 30 29 30 30 33 35 34 32 30 29 33 39 42 44 45 44 42 41 41 41 40 40 38 32 20 16 17 18 20 23 27 29 29 22 22 24 24 25
38 37 35 34 31 31 32 33 36 35 34 33 30 29 29 35 43 45 46 48 48 47 47 43 34 27 25 24 24 20 20 23 26 29 31 30 29 31 33 25 28 23 19
39 38 35 32 32 34 35 37 36 35 35 34 30 29 34 41 49 52 53 52 49 48 37 24 21 23 26 30 31 26 29 31 33 34 35 36 34 27 17 11 9 8 6
42 38 34 32 37 36 39 38 36 37 37 34 35 37 44 52 56 58 57 56 51 38 26 21 21 20 22 25 28 32 34 34 34 32 22 13 8 7 5 4 4 4 3
39 36 34 38 37 39 40 38 39 40 41 42 44 47 52 58 61 62 60 56 45 32 27 19 23 23 28 33 35 36 34 29 17 9 8 6 4 4 4 4 4 4 3
37 35 36 39 38 42 41 41 42 45 46 48 51 54 59 63 67 66 64 55 35 23 20 22 26 29 32 34 33 29 17 10 8 6 5 4 4 4 4 4 5 7 4
39 35 37 39 40 43 43 45 48 50 51 54 56 60 65 71 73 70 67 51 34 22 21 24 29 33 34 33 22 12 9 7 5 5 4 4 4 4 4 4 4 8 14
38 38 37 40 42 45 46 49 53 55 56 56 60 65 69 75 76 74 64 38 22 20 22 29 36 36 30 16 12 9 6 5 5 5 5 5 4 4 4 4 6 9 13
38 40 39 41 43 46 50 53 58 60 58 57 63 67 72 77 78 71 49 23 19 22 29 35 34 24 14 12 9 6 5 5 6 6 5 5 5 5 5 6 7 9 14
40 42 42 43 46 49 54 59 62 61 57 61 65 70 76 76 70 56 35 22 24 29 33 28 17 14 13 10 7 6 5 6 6 6 6 5 5 6 7 9 12 15 19
39 41 45 47 49 54 60 63 62 58 61 64 71 76 76 72 58 43 25 24 29 29 22 16 15 15 12 7 6 6 6 6 6 6 6 6 6 8 10 12 15 21 30
41 44 48 52 55 60 65 60 57 61 65 71 73 73 72 58 37 24 26 29 29 20 16 17 18 14 8 6 6 6 6 6 6 6 6 6 7 9 12 30 34 36 70
47 48 55 58 62 64 56 58 62 66 66 63 63 66 55 30 25 27 30 31 20 18 20 22 14 9 7 7 7 7 6 7 7 6 6 7 9 12 16 26 34 91 100
51 56 62 63 56 56 58 62 61 53 49 50 56 56 34 27 29 31 31 21 20 23 24 14 9 8 7 7 7 7 7 8 8 8 8 9 15 24 30 31 35 45 74
53 54 54 54 56 59 61 51 36 32 41 48 47 33 28 30 33 29 23 23 26 23 13 9 8 8 8 8 8 8 8 9 9 10 12 19 24 30 34 51 54 74 47
52 54 56 57 62 56 30 19 22 29 35 37 34 31 31 32 28 24 26 29 24 15 9 10 11 10 9 9 10 10 10 10 10 11 20 27 29 32 48 80 99 48 38
60 58 62 61 37 17 17 19 24 28 30 32 32 31 33 28 26 30 31 25 15 10 12 15 13 10 9 10 11 12 13 12 12 12 21 29 34 39 66 92 78 49 44
61 66 53 27 17 18 20 23 25 28 29 30 32 34 29 28 33 34 26 14 11 16 18 15 11 11 11 11 13 14 16 16 16 20 26 29 37 70 59 67 57 51 52
66 51 24 18 20 21 21 22 25 27 30 34 34 29 32 37 37 27 15 15 21 20 14 12 12 12 12 14 15 16 18 21 31 31 32 36 55 54 53 56 50 51 56
46 22 20 21 20 18 19 22 26 32 33 31 30 35 41 40 29 18 21 26 20 15 14 14 13 13 14 15 16 18 19 23 32 38 42 46 52 53 54 49 54 58 58
22 23 22 19 17 19 22 28 31 30 30 32 40 46 45 36 25 29 29 20 17 16 16 15 14 14 15 17 18 18 22 29 36 43 49 51 53 55 51 49 52 61 99
24 23 19 16 18 22 25 28 28 30 36 43 48 49 47 39 35 33 24 19 19 18 17 16 16 16 16 18 21 31 36 40 50 55 52 52 56 48 45 47 65 98 98
23 17 16 18 20 21 23 25 33 41 46 50 53 55 54 44 38 33 26 23 22 20 18 18 17 17 21 22 28 35 42 52 59 56 58 58 53 49 51 67 94 97 97
Wind_Speed
15 15 14 15 16 17 17 19 20 20 17 14 14 15 16 17 18 21 24 26 28 29 30 31 31 32 33 34 36 38 39 41 44 48 50 49 48 47 47 48 48 49 49
17 16 17 16 16 17 17 16 12 9 8 8 8 8 10 13 16 19 22 24 25 27 27 28 30 31 33 36 38 42 45 46 47 50 52 54 51 48 46 46 46 47 48
20 18 19 19 17 16 14 11 10 8 8 7 9 11 14 16 18 19 21 22 23 25 27 29 31 34 37 41 43 45 47 48 46 45 47 51 52 53 49 48 49 48 49
23 20 18 16 15 14 13 11 10 9 8 8 11 12 14 15 16 18 20 21 23 26 30 33 36 39 42 43 43 45 45 45 44 42 40 41 46 51 60 55 52 52 52
24 21 18 15 14 15 14 12 10 8 8 9 11 13 15 17 18 19 21 24 28 30 33 37 40 41 40 40 42 41 40 40 41 42 44 45 45 46 52 62 60 58 58
25 21 17 17 18 17 15 12 10 9 9 10 12 15 17 17 18 21 24 28 31 35 38 39 39 39 41 41 40 38 38 39 40 42 44 47 49 52 54 58 61 64 64
23 20 19 21 20 18 15 13 11 10 10 12 16 19 18 18 21 25 29 31 35 39 38 38 38 39 39 39 38 37 38 40 41 42 44 47 50 53 57 61 66 69 69
21 20 22 22 21 18 16 14 12 12 13 16 20 21 21 23 26 30 35 37 39 39 39 39 39 38 37 37 38 39 40 42 43 45 48 51 53 55 58 61 65 71 71
21 21 23 23 22 20 17 15 14 15 16 20 23 24 25 28 31 35 39 42 44 43 43 42 39 38 38 39 41 41 42 44 46 48 51 53 55 58 59 60 61 62 71
22 23 25 25 24 21 18 17 17 17 20 23 25 27 29 32 35 39 42 45 46 45 44 41 39 39 39 40 41 42 44 47 49 51 54 56 57 60 60 60 59 58 58
25 24 25 25 24 21 20 20 20 21 24 26 29 30 33 36 39 42 45 47 47 45 42 40 39 39 39 41 43 44 47 49 52 54 56 58 59 60 59 57 56 56 54
24 22 23 23 23 23 21 21 22 24 27 30 31 33 36 39 42 45 47 47 45 42 40 39 40 41 42 44 46 47 49 51 54 56 58 59 59 58 57 56 54 53 51
22 22 23 23 24 24 23 23 25 27 31 33 34 36 39 42 45 46 46 45 42 40 40 41 41 43 45 46 47 49 51 53 55 57 59 59 58 57 54 52 51 50 48
19 21 22 23 24 24 24 25 28 30 32 34 36 38 41 44 46 46 45 42 41 41 41 42 44 46 47 48 49 51 53 55 57 59 59 58 56 54 52 51 50 48 48
16 16 22 23 24 24 26 28 30 31 33 35 37 40 42 45 45 44 43 41 41 41 43 45 47 47 48 49 51 53 54 56 57 58 57 56 54 53 50 47 47 46 46
20 22 23 23 24 26 28 29 29 31 34 37 39 40 43 43 43 43 41 40 41 43 46 48 49 48 48 50 51 53 55 56 58 58 57 55 52 50 47 47 47 41 42
21 22 22 23 25 26 26 28 30 34 36 37 39 40 41 42 41 39 39 42 44 46 48 48 48 48 49 51 52 53 55 56 56 55 55 53 50 49 49 49 48 46 43
20 21 21 23 23 24 27 30 32 33 35 37 37 38 39 38 38 39 42 44 47 48 48 48 49 50 50 51 53 53 54 54 53 53 52 51 51 50 49 48 49 47 50
21 20 20 21 22 26 28 29 30 32 34 36 37 38 38 38 40 41 44 46 48 47 47 48 50 51 51 51 51 53 54 54 53 52 51 50 51 50 46 45 48 54 50
19 18 19 21 24 25 25 27 29 32 33 34 36 37 37 39 41 43 46 46 47 47 48 49 51 51 51 51 51 52 53 54 53 53 52 50 49 47 45 46 51 50 45
17 17 20 22 22 23 25 27 29 31 32 33 33 35 37 39 42 44 45 46 47 48 49 50 50 51 51 52 52 52 52 53 54 54 53 51 50 44 47 45 44 41 40
18 20 21 20 22 24 26 27 28 29 30 31 32 34 37 40 43 44 44 45 47 49 50 50 51 51 52 52 52 52 51 51 52 53 52 51 47 47 44 41 37 35 37
20 20 20 21 22 23 24 26 26 27 28 30 33 36 37 40 42 43 44 46 47 49 50 50 52 52 52 52 51 50 50 50 51 50 49 46 45 42 39 34 33 34 37
17 18 20 21 22 22 23 24 25 26 29 31 33 35 38 39 40 42 45 47 48 48 49 50 52 52 52 51 50 50 51 51 50 48 47 43 40 37 33 30 30 33 38
17 18 19 20 20 22 22 23 25 28 29 30 33 36 38 39 41 42 45 47 48 50 51 50 51 51 50 48 48 49 51 50 46 46 43 40 38 33 29 30 32 37 32
16 18 19 20 20 21 22 25 26 27 29 32 35 37 39 40 42 44 46 47 49 50 50 49 49 49 47 47 47 48 47 43 42 41 40 37 33 30 31 33 37 30 27
Wind_Direction
246 241 238 234 237 244 253 260 267 271 268 259 257 261 264 268 270 271 272 275 278 283 285 286 290 293 294 294 295 296 296 297 299 300 298 299 298 301 297 301 297 296 296
243 242 238 238 242 251 261 266 259 239 235 240 250 262 270 274 276 277 279 282 285 286 288 291 292 293 293 294 296 298 300 301 302 302 303 303 301 302 301 297 295 293 294
237 237 237 242 248 252 248 228 218 219 227 244 264 274 277 278 280 283 285 287 290 293 295 295 295 296 298 299 300 302 303 304 304 304 306 307 307 305 303 302 302 302 301
229 229 230 237 242 229 211 206 211 224 246 267 278 284 288 292 293 295 296 297 298 299 299 300 301 301 301 302 304 305 306 306 307 306 304 303 305 309 308 307 305 303 301
225 222 223 229 221 204 203 209 221 240 262 278 292 303 306 304 302 301 303 303 304 304 304 304 303 303 303 305 308 309 307 306 307 309 310 309 307 305 304 305 307 305 303
219 212 213 210 199 201 208 221 238 256 271 292 312 316 310 302 300 304 307 309 309 308 308 308 307 306 306 306 308 309 309 310 310 310 310 310 310 310 307 304 304 304 305
211 209 205 197 198 204 216 232 247 264 284 306 317 321 312 307 308 310 311 311 311 312 312 310 309 309 309 310 311 312 311 311 312 311 309 309 309 309 308 307 306 306 306
201 200 196 197 203 211 225 240 257 274 292 313 318 318 311 309 310 312 314 314 314 314 311 312 313 314 314 314 314 315 315 314 314 314 313 311 312 311 310 309 308 305 303
199 198 196 201 208 219 233 250 267 283 299 312 314 313 309 309 311 314 315 316 317 317 316 318 318 317 318 318 317 316 315 315 315 314 313 313 314 312 311 309 306 304 305
202 202 204 208 214 225 241 256 269 286 300 307 308 308 307 308 310 312 314 316 316 316 317 318 318 317 317 316 316 316 316 315 315 316 315 315 315 313 312 310 308 306 302
205 208 210 214 221 231 247 261 273 286 297 304 305 305 305 306 307 310 313 315 315 317 318 318 316 316 316 317 317 317 317 317 317 317 317 316 316 316 315 312 309 306 303
208 210 216 223 228 238 253 265 275 285 295 301 303 303 304 304 307 309 312 314 316 317 317 316 316 318 319 319 317 318 318 317 317 318 317 319 319 317 316 312 309 307 307
207 214 223 227 233 243 257 269 280 287 294 299 300 301 301 302 305 309 312 316 318 317 316 316 318 319 319 318 317 317 317 317 318 318 320 321 319 317 315 312 310 308 305
216 229 233 234 241 250 264 276 282 289 294 296 297 298 300 302 306 310 312 316 317 316 316 318 319 319 318 318 317 318 318 318 319 320 321 321 319 317 316 312 310 309 307
240 251 244 242 249 259 271 278 284 289 292 293 295 298 300 304 310 311 314 316 316 316 318 319 319 319 319 318 318 318 318 318 320 321 322 322 320 318 315 312 310 310 308
253 247 244 249 258 267 274 281 285 288 290 292 294 297 302 308 310 312 313 315 316 319 319 319 319 320 320 319 318 318 318 320 322 322 323 321 318 315 314 312 311 308 305
248 247 248 254 265 271 278 280 284 287 289 290 294 301 305 307 308 311 315 316 318 319 319 320 321 321 321 319 318 319 321 322 323 324 321 317 317 316 315 313 310 308 306
242 246 253 261 267 274 278 283 285 286 287 291 299 300 304 308 313 316 317 318 319 320 322 322 322 321 321 320 321 321 321 323 325 322 318 319 319 317 316 314 310 308 306
242 250 259 267 272 277 281 282 284 286 289 295 298 303 311 314 315 317 317 319 320 321 322 323 322 321 322 322 321 323 324 325 324 320 320 321 319 319 317 312 310 309 312
248 256 264 270 277 280 280 283 285 287 294 298 303 308 311 313 315 317 319 321 322 323 324 324 323 322 322 323 324 326 326 324 323 320 321 321 319 318 318 314 313 316 317
253 260 271 278 278 281 283 284 288 293 297 301 306 309 312 315 317 320 322 323 324 325 324 324 323 323 324 325 326 326 326 325 322 322 322 321 321 322 319 320 319 318 319
263 271 276 278 281 283 286 291 294 296 301 305 308 311 315 318 321 321 323 325 326 325 325 324 325 325 326 326 326 326 325 323 320 321 322 322 324 323 324 323 321 322 322
270 271 275 281 287 291 293 293 296 300 305 308 312 315 318 320 322 324 325 325 326 326 327 327 326 325 325 325 326 324 322 322 321 322 320 325 325 325 324 326 327 326 324
267 277 284 289 292 292 293 296 300 306 309 309 313 318 321 322 324 326 327 327 327 327 328 327 325 325 325 326 325 324 325 325 324 323 326 328 326 327 328 329 330 330 329
279 286 290 291 292 294 296 303 307 306 306 313 318 320 322 325 326 326 328 328 329 328 327 327 326 325 325 326 328 328 326 328 326 326 329 330 330 333 334 335 335 333 333
288 290 291 293 295 300 306 304 301 306 315 317 318 322 325 325 327 328 329 329 328 327 328 328 326 326 327 329 330 328 328 329 331 331 331 333 334 337 338 339 338 342 341